Time,TemperatureF,DewpointF,PressureIn,WindDirection,WindDirectionDegrees,WindSpeedMPH,WindSpeedGustMPH,Humidity,HourlyPrecipIn,Conditions,Clouds,dailyrainin,SolarRadiationWatts/m^2,SoftwareType,DateUTC
2013-09-12 00:02:00,79.2,73.6,30.02,SE,128,0.0,0.0,83,0.00,,,0.00,0,Wunderground v.1.15,2013-09-12 04:02:00,
2013-09-12 00:06:00,79.0,74.1,30.02,SE,132,0.0,3.0,85,0.00,,,0.00,0,Wunderground v.1.15,2013-09-12 04:06:00,
2013-09-12 00:10:00,78.7,73.5,30.03,ESE,109,2.0,5.0,84,0.00,,,0.00,0,Wunderground v.1.15,2013-09-12 04:10:00,
2013-09-12 00:14:00,78.3,73.4,30.02,ENE,66,3.0,5.0,85,0.00,,,0.00,0,Wunderground v.1.15,2013-09-12 04:14:00,
2013-09-12 00:16:00,78.1,73.2,30.02,ENE,66,3.0,5.0,85,0.00,,,0.00,0,Wunderground v.1.15,2013-09-12 04:16:00,
2013-09-12 00:22:00,77.6,73.1,30.02,ENE,68,1.0,2.0,86,0.00,,,0.00,0,Wunderground v.1.15,2013-09-12 04:22:00,
2013-09-12 00:28:00,77.2,73.0,30.01,ENE,69,0.0,2.0,87,0.00,,,0.00,0,Wunderground v.1.15,2013-09-12 04:28:00,
2013-09-12 00:34:00,77.0,72.8,30.00,ENE,69,0.0,0.0,87,0.00,,,0.00,0,Wunderground v.1.15,2013-09-12 04:34:00,
2013-09-12 00:40:00,76.9,72.7,30.00,ENE,69,0.0,0.0,87,0.00,,,0.00,0,Wunderground v.1.15,2013-09-12 04:40:00,
2013-09-12 00:46:00,77.0,73.2,29.99,ENE,68,0.0,0.0,88,0.00,,,0.00,0,Wunderground v.1.15,2013-09-12 04:46:00,
2013-09-12 00:52:00,77.2,73.0,29.99,ENE,68,0.0,0.0,87,0.00,,,0.00,0,Wunderground v.1.15,2013-09-12 04:52:00,
2013-09-12 00:58:00,77.5,73.7,29.99,ENE,69,0.0,0.0,88,0.00,,,0.00,0,Wunderground v.1.15,2013-09-12 04:58:00,
2013-09-12 01:04:00,77.7,73.9,29.99,ENE,68,0.0,0.0,88,0.00,,,0.00,0,Wunderground v.1.15,2013-09-12 05:04:00,
2013-09-12 01:10:00,77.8,74.0,29.99,ENE,69,0.0,0.0,88,0.00,,,0.00,0,Wunderground v.1.15,2013-09-12 05:10:00,
2013-09-12 01:16:00,77.9,74.4,29.99,ENE,69,0.0,0.0,89,0.00,,,0.00,0,Wunderground v.1.15,2013-09-12 05:16:00,
2013-09-12 01:22:00,78.0,74.5,30.00,ENE,68,0.0,0.0,89,0.00,,,0.00,0,Wunderground v.1.15,2013-09-12 05:22:00,
2013-09-12 01:28:00,78.0,74.5,30.00,ENE,69,0.0,0.0,89,0.00,,,0.00,0,Wunderground v.1.15,2013-09-12 05:28:00,
2013-09-12 01:34:00,78.0,74.5,29.99,ENE,69,0.0,0.0,89,0.00,,,0.00,0,Wunderground v.1.15,2013-09-12 05:34:00,
2013-09-12 01:40:00,78.0,74.5,29.99,ENE,69,0.0,0.0,89,0.00,,,0.00,0,Wunderground v.1.15,2013-09-12 05:40:00,
2013-09-12 01:46:00,77.9,74.7,29.99,ENE,68,0.0,0.0,90,0.00,,,0.00,0,Wunderground v.1.15,2013-09-12 05:46:00,
2013-09-12 01:52:00,77.9,74.4,29.99,ENE,68,0.0,0.0,89,0.00,,,0.00,0,Wunderground v.1.15,2013-09-12 05:52:00,
2013-09-12 01:58:00,77.7,74.2,29.98,ENE,68,0.0,0.0,89,0.00,,,0.00,0,Wunderground v.1.15,2013-09-12 05:58:00,
2013-09-12 02:04:00,77.6,74.1,29.99,ENE,68,0.0,0.0,89,0.00,,,0.00,0,Wunderground v.1.15,2013-09-12 06:04:00,
2013-09-12 02:10:00,77.6,74.1,29.98,ENE,68,0.0,0.0,89,0.00,,,0.00,0,Wunderground v.1.15,2013-09-12 06:10:00,
2013-09-12 02:16:00,77.5,74.0,29.98,ENE,68,0.0,0.0,89,0.00,,,0.00,0,Wunderground v.1.15,2013-09-12 06:16:00,
2013-09-12 02:22:00,77.5,74.0,29.98,ENE,68,0.0,0.0,89,0.00,,,0.00,0,Wunderground v.1.15,2013-09-12 06:22:00,
2013-09-12 02:28:00,77.6,74.1,29.98,ENE,68,0.0,0.0,89,0.00,,,0.00,0,Wunderground v.1.15,2013-09-12 06:28:00,
2013-09-12 02:34:00,77.6,74.1,29.98,ENE,68,0.0,0.0,89,0.00,,,0.00,0,Wunderground v.1.15,2013-09-12 06:34:00,
2013-09-12 02:40:00,77.6,74.1,29.97,ENE,68,0.0,0.0,89,0.00,,,0.00,0,Wunderground v.1.15,2013-09-12 06:40:00,
2013-09-12 02:46:00,77.6,74.1,29.97,ENE,68,0.0,0.0,89,0.00,,,0.00,0,Wunderground v.1.15,2013-09-12 06:46:00,
2013-09-12 02:52:00,77.6,74.1,29.97,ENE,68,0.0,0.0,89,0.00,,,0.00,0,Wunderground v.1.15,2013-09-12 06:52:00,
2013-09-12 02:58:00,77.7,74.2,29.98,ENE,68,0.0,0.0,89,0.00,,,0.00,0,Wunderground v.1.15,2013-09-12 06:58:00,
2013-09-12 03:04:00,77.9,74.4,29.97,SE,126,0.0,0.0,89,0.00,,,0.01,0,Wunderground v.1.15,2013-09-12 07:04:00,
2013-09-12 03:10:00,78.0,74.8,29.97,SE,126,0.0,0.0,90,0.07,,,0.02,0,Wunderground v.1.15,2013-09-12 07:10:00,
2013-09-12 03:16:00,78.0,74.8,29.96,SE,126,0.0,0.0,90,0.07,,,0.02,0,Wunderground v.1.15,2013-09-12 07:16:00,
2013-09-12 03:22:00,78.0,74.8,29.96,SE,126,0.0,0.0,90,0.06,,,0.03,0,Wunderground v.1.15,2013-09-12 07:22:00,
2013-09-12 03:28:00,77.8,74.6,29.96,SE,126,0.0,0.0,90,0.06,,,0.03,0,Wunderground v.1.15,2013-09-12 07:28:00,
2013-09-12 03:34:00,77.6,74.8,29.96,SE,126,0.0,0.0,91,0.04,,,0.03,0,Wunderground v.1.15,2013-09-12 07:34:00,
2013-09-12 03:40:00,77.6,74.8,29.96,SE,126,0.0,0.0,91,0.00,,,0.03,0,Wunderground v.1.15,2013-09-12 07:40:00,
2013-09-12 03:46:00,77.5,74.7,29.95,SE,126,0.0,0.0,91,0.00,,,0.03,0,Wunderground v.1.15,2013-09-12 07:46:00,
2013-09-12 03:52:00,77.4,74.9,29.95,SE,126,0.0,0.0,92,0.00,,,0.03,0,Wunderground v.1.15,2013-09-12 07:52:00,
2013-09-12 03:58:00,77.3,74.8,29.95,SE,126,0.0,0.0,92,0.00,,,0.03,0,Wunderground v.1.15,2013-09-12 07:58:00,
2013-09-12 04:04:00,77.3,74.8,29.95,SE,126,0.0,0.0,92,0.00,,,0.03,0,Wunderground v.1.15,2013-09-12 08:04:00,
2013-09-12 04:10:00,77.3,74.8,29.95,SE,126,0.0,0.0,92,0.00,,,0.03,0,Wunderground v.1.15,2013-09-12 08:10:00,
2013-09-12 04:16:00,77.3,74.8,29.95,SE,126,0.0,0.0,92,0.00,,,0.03,0,Wunderground v.1.15,2013-09-12 08:16:00,
2013-09-12 04:22:00,77.2,74.7,29.95,SE,126,0.0,0.0,92,0.00,,,0.03,0,Wunderground v.1.15,2013-09-12 08:22:00,
2013-09-12 04:28:00,77.3,75.1,29.95,SE,126,0.0,0.0,93,0.00,,,0.03,0,Wunderground v.1.15,2013-09-12 08:28:00,
2013-09-12 04:34:00,77.3,75.1,29.96,SE,126,0.0,0.0,93,0.00,,,0.03,0,Wunderground v.1.15,2013-09-12 08:34:00,
2013-09-12 04:40:00,77.3,75.1,29.96,SE,126,0.0,0.0,93,0.00,,,0.03,0,Wunderground v.1.15,2013-09-12 08:40:00,
2013-09-12 04:46:00,77.4,75.2,29.96,SE,126,0.0,0.0,93,0.00,,,0.03,0,Wunderground v.1.15,2013-09-12 08:46:00,
2013-09-12 04:52:00,77.5,75.3,29.95,SE,126,0.0,0.0,93,0.00,,,0.03,0,Wunderground v.1.15,2013-09-12 08:52:00,
2013-09-12 04:58:00,77.7,75.5,29.96,SE,125,0.0,0.0,93,0.00,,,0.03,0,Wunderground v.1.15,2013-09-12 08:58:00,
2013-09-12 05:04:00,77.8,75.6,29.96,SE,126,0.0,0.0,93,0.00,,,0.03,0,Wunderground v.1.15,2013-09-12 09:04:00,
2013-09-12 05:10:00,77.9,75.7,29.96,SE,126,0.0,0.0,93,0.00,,,0.03,0,Wunderground v.1.15,2013-09-12 09:10:00,
2013-09-12 05:16:00,78.0,75.8,29.96,SE,126,0.0,0.0,93,0.00,,,0.03,0,Wunderground v.1.15,2013-09-12 09:16:00,
2013-09-12 05:22:00,78.1,75.9,29.96,SE,125,0.0,0.0,93,0.00,,,0.03,0,Wunderground v.1.15,2013-09-12 09:22:00,
2013-09-12 05:30:00,78.1,75.9,29.96,SE,126,0.0,0.0,93,0.00,,,0.03,0,Wunderground v.1.15,2013-09-12 09:30:00,
2013-09-12 05:36:00,78.0,75.8,29.96,SE,125,0.0,0.0,93,0.00,,,0.03,0,Wunderground v.1.15,2013-09-12 09:36:00,
2013-09-12 05:42:00,78.0,75.8,29.96,SE,125,0.0,0.0,93,0.00,,,0.03,0,Wunderground v.1.15,2013-09-12 09:42:00,
2013-09-12 05:48:00,78.0,75.8,29.96,SE,126,0.0,0.0,93,0.00,,,0.03,0,Wunderground v.1.15,2013-09-12 09:48:00,
2013-09-12 05:54:00,77.9,75.4,29.96,SE,125,0.0,0.0,92,0.00,,,0.03,0,Wunderground v.1.15,2013-09-12 09:54:00,
2013-09-12 06:00:00,77.9,75.4,29.97,SE,125,0.0,0.0,92,0.00,,,0.03,0,Wunderground v.1.15,2013-09-12 10:00:00,
2013-09-12 06:06:00,77.9,75.4,29.96,SE,126,0.0,0.0,92,0.00,,,0.03,0,Wunderground v.1.15,2013-09-12 10:06:00,
2013-09-12 06:12:00,77.9,75.4,29.97,SE,126,0.0,0.0,92,0.00,,,0.03,0,Wunderground v.1.15,2013-09-12 10:12:00,
2013-09-12 06:18:00,77.9,75.4,29.97,SE,126,0.0,0.0,92,0.00,,,0.03,0,Wunderground v.1.15,2013-09-12 10:18:00,
2013-09-12 06:24:00,77.8,75.3,29.97,SE,126,0.0,0.0,92,0.00,,,0.03,0,Wunderground v.1.15,2013-09-12 10:24:00,
2013-09-12 06:30:00,77.9,75.4,29.97,SE,125,0.0,0.0,92,0.00,,,0.03,0,Wunderground v.1.15,2013-09-12 10:30:00,
2013-09-12 06:36:00,77.9,75.4,29.97,SE,126,0.0,0.0,92,0.00,,,0.03,0,Wunderground v.1.15,2013-09-12 10:36:00,
2013-09-12 06:42:00,77.8,75.3,29.97,SE,126,0.0,0.0,92,0.00,,,0.03,0,Wunderground v.1.15,2013-09-12 10:42:00,
2013-09-12 06:48:00,77.8,75.6,29.97,SE,126,0.0,0.0,93,0.00,,,0.03,0,Wunderground v.1.15,2013-09-12 10:48:00,
2013-09-12 06:54:00,77.7,75.5,29.97,SE,125,0.0,0.0,93,0.00,,,0.03,0,Wunderground v.1.15,2013-09-12 10:54:00,
2013-09-12 07:00:00,77.7,75.5,29.97,SE,125,0.0,0.0,93,0.00,,,0.03,0,Wunderground v.1.15,2013-09-12 11:00:00,
2013-09-12 07:06:00,77.6,75.4,29.97,SE,126,0.0,0.0,93,0.00,,,0.03,0,Wunderground v.1.15,2013-09-12 11:06:00,
2013-09-12 07:12:00,77.6,75.4,29.97,SE,126,0.0,0.0,93,0.00,,,0.03,0,Wunderground v.1.15,2013-09-12 11:12:00,
2013-09-12 07:18:00,77.7,75.5,29.98,SE,125,0.0,0.0,93,0.00,,,0.03,7,Wunderground v.1.15,2013-09-12 11:18:00,
2013-09-12 07:24:00,77.7,75.5,29.97,SE,125,0.0,0.0,93,0.00,,,0.03,11,Wunderground v.1.15,2013-09-12 11:24:00,
2013-09-12 07:30:00,77.8,75.6,29.97,SE,125,0.0,0.0,93,0.00,,,0.03,14,Wunderground v.1.15,2013-09-12 11:30:00,
2013-09-12 07:36:00,77.7,75.5,29.97,SE,125,0.0,0.0,93,0.00,,,0.03,19,Wunderground v.1.15,2013-09-12 11:36:00,
2013-09-12 07:42:00,77.7,75.5,29.97,SE,125,0.0,0.0,93,0.00,,,0.03,26,Wunderground v.1.15,2013-09-12 11:42:00,
2013-09-12 07:48:00,77.7,75.5,29.97,SE,126,0.0,0.0,93,0.00,,,0.03,32,Wunderground v.1.15,2013-09-12 11:48:00,
2013-09-12 07:54:00,77.7,75.8,29.98,SE,126,0.0,0.0,94,0.00,,,0.03,26,Wunderground v.1.15,2013-09-12 11:54:00,
2013-09-12 08:00:00,77.8,75.9,29.98,SE,125,0.0,0.0,94,0.00,,,0.03,26,Wunderground v.1.15,2013-09-12 12:00:00,
2013-09-12 08:06:00,78.0,76.1,29.98,SE,125,0.0,0.0,94,0.00,,,0.03,35,Wunderground v.1.15,2013-09-12 12:06:00,
2013-09-12 08:12:00,78.1,76.2,29.98,ESE,108,0.0,0.0,94,0.00,,,0.03,37,Wunderground v.1.15,2013-09-12 12:12:00,
2013-09-12 08:18:00,78.4,76.5,29.99,East,88,0.0,0.0,94,0.00,,,0.03,46,Wunderground v.1.15,2013-09-12 12:18:00,
2013-09-12 08:24:00,78.7,76.8,29.99,ENE,58,0.0,3.0,94,0.00,,,0.03,42,Wunderground v.1.15,2013-09-12 12:24:00,
2013-09-12 08:30:00,79.0,76.8,29.99,East,98,1.0,1.0,93,0.00,,,0.03,44,Wunderground v.1.15,2013-09-12 12:30:00,
2013-09-12 08:36:00,79.3,76.8,29.99,ENE,71,0.0,1.0,92,0.00,,,0.03,46,Wunderground v.1.15,2013-09-12 12:36:00,
2013-09-12 08:42:00,79.6,76.7,30.00,East,92,0.0,0.0,91,0.00,,,0.03,56,Wunderground v.1.15,2013-09-12 12:42:00,
2013-09-12 08:48:00,79.8,76.9,30.00,East,86,0.0,0.0,91,0.00,,,0.03,70,Wunderground v.1.15,2013-09-12 12:48:00,
2013-09-12 08:54:00,80.0,76.8,30.00,East,100,0.0,0.0,90,0.00,,,0.03,76,Wunderground v.1.15,2013-09-12 12:54:00,
2013-09-12 09:00:00,80.3,77.1,30.00,East,98,0.0,0.0,90,0.00,,,0.03,65,Wunderground v.1.15,2013-09-12 13:00:00,
2013-09-12 09:06:00,80.4,76.9,30.00,East,98,0.0,0.0,89,0.00,,,0.03,58,Wunderground v.1.15,2013-09-12 13:06:00,
2013-09-12 09:12:00,80.5,77.0,30.00,East,92,0.0,0.0,89,0.00,,,0.03,51,Wunderground v.1.15,2013-09-12 13:12:00,
2013-09-12 09:18:00,80.6,77.1,30.00,ESE,105,0.0,0.0,89,0.00,,,0.03,46,Wunderground v.1.15,2013-09-12 13:18:00,
2013-09-12 09:24:00,80.3,76.4,30.00,East,94,1.0,5.0,88,0.00,,,0.03,65,Wunderground v.1.15,2013-09-12 13:24:00,
2013-09-12 09:30:00,80.1,75.9,30.00,ESE,117,2.0,2.0,87,0.00,,,0.03,83,Wunderground v.1.15,2013-09-12 13:30:00,
2013-09-12 09:36:00,80.0,75.1,30.00,East,86,1.0,2.0,85,0.00,,,0.03,90,Wunderground v.1.15,2013-09-12 13:36:00,
2013-09-12 09:42:00,80.0,74.0,30.00,East,89,0.0,0.0,82,0.00,,,0.03,84,Wunderground v.1.15,2013-09-12 13:42:00,
2013-09-12 09:48:00,80.0,73.6,30.00,ESE,119,0.0,4.0,81,0.00,,,0.03,79,Wunderground v.1.15,2013-09-12 13:48:00,
2013-09-12 09:54:00,80.0,73.6,30.00,ESE,120,0.0,0.0,81,0.00,,,0.03,95,Wunderground v.1.15,2013-09-12 13:54:00,
2013-09-12 10:00:00,80.0,73.3,30.00,ESE,120,0.0,0.0,80,0.00,,,0.03,107,Wunderground v.1.15,2013-09-12 14:00:00,
2013-09-12 10:06:00,80.0,73.3,30.00,ESE,120,0.0,0.0,80,0.00,,,0.03,128,Wunderground v.1.15,2013-09-12 14:06:00,
2013-09-12 10:12:00,80.0,72.9,30.00,ESE,118,0.0,0.0,79,0.00,,,0.03,151,Wunderground v.1.15,2013-09-12 14:12:00,
2013-09-12 10:18:00,80.3,73.6,30.00,ESE,117,0.0,0.0,80,0.00,,,0.03,160,Wunderground v.1.15,2013-09-12 14:18:00,
2013-09-12 10:24:00,80.7,74.7,30.00,ESE,115,0.0,0.0,82,0.00,,,0.03,163,Wunderground v.1.15,2013-09-12 14:24:00,
2013-09-12 10:30:00,80.9,74.9,30.00,ESE,114,0.0,0.0,82,0.00,,,0.03,153,Wunderground v.1.15,2013-09-12 14:30:00,
2013-09-12 10:36:00,81.0,75.3,30.00,ESE,113,0.0,0.0,83,0.00,,,0.03,151,Wunderground v.1.15,2013-09-12 14:36:00,
2013-09-12 10:42:00,81.2,75.9,30.00,ESE,113,0.0,0.0,84,0.00,,,0.03,158,Wunderground v.1.15,2013-09-12 14:42:00,
2013-09-12 10:48:00,81.3,76.4,29.99,ESE,113,0.0,0.0,85,0.00,,,0.03,199,Wunderground v.1.15,2013-09-12 14:48:00,
2013-09-12 10:54:00,81.6,76.6,29.99,ESE,113,0.0,0.0,85,0.00,,,0.03,223,Wunderground v.1.15,2013-09-12 14:54:00,
2013-09-12 11:00:00,81.8,76.8,29.99,ESE,113,0.0,0.0,85,0.00,,,0.03,269,Wunderground v.1.15,2013-09-12 15:00:00,
2013-09-12 11:06:00,82.2,76.9,29.99,ENE,73,0.0,0.0,84,0.00,,,0.03,462,Wunderground v.1.15,2013-09-12 15:06:00,
2013-09-12 11:12:00,82.5,76.8,29.99,East,82,0.0,0.0,83,0.00,,,0.03,369,Wunderground v.1.15,2013-09-12 15:12:00,
2013-09-12 11:18:00,82.7,76.6,29.99,ESE,120,1.0,1.0,82,0.00,,,0.03,297,Wunderground v.1.15,2013-09-12 15:18:00,
2013-09-12 11:24:00,82.8,77.1,29.99,ESE,118,0.0,1.0,83,0.00,,,0.03,308,Wunderground v.1.15,2013-09-12 15:24:00,
2013-09-12 11:30:00,82.7,76.6,29.99,East,101,0.0,0.0,82,0.00,,,0.03,350,Wunderground v.1.15,2013-09-12 15:30:00,
2013-09-12 11:36:00,82.8,76.7,29.99,ESE,119,1.0,7.0,82,0.00,,,0.03,394,Wunderground v.1.15,2013-09-12 15:36:00,
2013-09-12 11:42:00,82.8,76.4,29.99,ESE,118,2.0,7.0,81,0.00,,,0.03,359,Wunderground v.1.15,2013-09-12 15:42:00,
2013-09-12 11:48:00,83.0,76.2,30.00,East,101,1.0,7.0,80,0.00,,,0.03,353,Wunderground v.1.15,2013-09-12 15:48:00,
2013-09-12 11:54:00,83.2,76.4,29.99,East,96,0.0,1.0,80,0.00,,,0.03,366,Wunderground v.1.15,2013-09-12 15:54:00,
2013-09-12 12:00:00,83.6,76.4,29.99,ESE,110,0.0,0.0,79,0.00,,,0.03,380,Wunderground v.1.15,2013-09-12 16:00:00,
2013-09-12 12:06:00,83.8,76.6,29.99,ESE,110,0.0,0.0,79,0.00,,,0.03,408,Wunderground v.1.15,2013-09-12 16:06:00,
2013-09-12 12:12:00,84.0,76.0,29.99,SE,146,0.0,0.0,77,0.00,,,0.03,369,Wunderground v.1.15,2013-09-12 16:12:00,
2013-09-12 12:18:00,84.2,76.2,29.99,SE,135,0.0,0.0,77,0.00,,,0.03,338,Wunderground v.1.15,2013-09-12 16:18:00,
2013-09-12 12:24:00,84.5,76.5,29.98,SE,135,0.0,0.0,77,0.00,,,0.03,329,Wunderground v.1.15,2013-09-12 16:24:00,
2013-09-12 12:30:00,84.3,75.5,29.99,East,79,0.0,0.0,75,0.00,,,0.03,327,Wunderground v.1.15,2013-09-12 16:30:00,
2013-09-12 12:36:00,84.3,75.9,29.98,East,86,0.0,0.0,76,0.00,,,0.03,320,Wunderground v.1.15,2013-09-12 16:36:00,
2013-09-12 12:42:00,84.3,75.5,29.98,ENE,64,0.0,0.0,75,0.00,,,0.03,315,Wunderground v.1.15,2013-09-12 16:42:00,
2013-09-12 12:48:00,84.0,75.2,29.98,SE,134,0.0,0.0,75,0.00,,,0.03,306,Wunderground v.1.15,2013-09-12 16:48:00,
2013-09-12 12:54:00,83.9,74.3,29.98,East,96,1.0,1.0,73,0.00,,,0.03,285,Wunderground v.1.15,2013-09-12 16:54:00,
2013-09-12 13:00:00,83.9,73.5,29.98,SSE,150,0.0,4.0,71,0.00,,,0.03,283,Wunderground v.1.15,2013-09-12 17:00:00,
2013-09-12 13:06:00,83.9,73.9,29.98,SSE,153,0.0,4.0,72,0.00,,,0.03,302,Wunderground v.1.15,2013-09-12 17:06:00,
2013-09-12 13:12:00,83.9,73.9,29.97,SE,126,0.0,5.0,72,0.00,,,0.03,329,Wunderground v.1.15,2013-09-12 17:12:00,
2013-09-12 13:18:00,84.1,75.3,29.97,SE,136,2.0,7.0,75,0.00,,,0.03,366,Wunderground v.1.15,2013-09-12 17:18:00,
2013-09-12 13:24:00,84.1,75.7,29.97,ESE,113,2.0,5.0,76,0.00,,,0.03,359,Wunderground v.1.15,2013-09-12 17:24:00,
2013-09-12 13:30:00,83.9,75.9,29.97,SSE,159,2.0,4.0,77,0.00,,,0.03,350,Wunderground v.1.15,2013-09-12 17:30:00,
2013-09-12 13:36:00,83.9,76.3,29.97,ESE,115,1.0,4.0,78,0.00,,,0.03,336,Wunderground v.1.15,2013-09-12 17:36:00,
2013-09-12 13:42:00,83.8,76.2,29.97,ESE,121,1.0,1.0,78,0.00,,,0.03,304,Wunderground v.1.15,2013-09-12 17:42:00,
2013-09-12 13:48:00,83.5,75.9,29.97,SE,125,1.0,4.0,78,0.00,,,0.03,269,Wunderground v.1.15,2013-09-12 17:48:00,
2013-09-12 13:54:00,83.5,76.3,29.96,ESE,112,2.0,2.0,79,0.00,,,0.03,246,Wunderground v.1.15,2013-09-12 17:54:00,
2013-09-12 14:00:00,83.6,76.4,29.96,SSE,157,1.0,1.0,79,0.00,,,0.03,234,Wunderground v.1.15,2013-09-12 18:00:00,
2013-09-12 14:06:00,83.5,75.9,29.96,SE,144,1.0,1.0,78,0.00,,,0.03,248,Wunderground v.1.15,2013-09-12 18:06:00,
2013-09-12 14:12:00,83.4,76.2,29.96,SSE,159,0.0,1.0,79,0.00,,,0.03,264,Wunderground v.1.15,2013-09-12 18:12:00,
2013-09-12 14:18:00,83.5,76.7,29.96,SSE,148,0.0,1.0,80,0.00,,,0.03,281,Wunderground v.1.15,2013-09-12 18:18:00,
2013-09-12 14:24:00,83.6,76.8,29.96,South,173,0.0,0.0,80,0.00,,,0.03,302,Wunderground v.1.15,2013-09-12 18:24:00,
2013-09-12 14:30:00,83.7,76.9,29.96,SSE,160,0.0,0.0,80,0.00,,,0.03,288,Wunderground v.1.15,2013-09-12 18:30:00,
2013-09-12 14:36:00,83.9,77.1,29.95,ESE,120,0.0,0.0,80,0.00,,,0.03,304,Wunderground v.1.15,2013-09-12 18:36:00,
2013-09-12 14:42:00,83.8,77.0,29.95,South,170,0.0,0.0,80,0.00,,,0.03,279,Wunderground v.1.15,2013-09-12 18:42:00,
2013-09-12 14:48:00,83.9,77.1,29.95,SE,139,0.0,0.0,80,0.00,,,0.03,271,Wunderground v.1.15,2013-09-12 18:48:00,
2013-09-12 14:54:00,84.0,76.8,29.94,East,98,0.0,0.0,79,0.00,,,0.03,271,Wunderground v.1.15,2013-09-12 18:54:00,
2013-09-12 15:00:00,84.0,77.2,29.94,East,92,0.0,0.0,80,0.00,,,0.03,255,Wunderground v.1.15,2013-09-12 19:00:00,
2013-09-12 15:06:00,83.9,77.1,29.93,East,79,0.0,0.0,80,0.00,,,0.03,255,Wunderground v.1.15,2013-09-12 19:06:00,
2013-09-12 15:12:00,83.8,77.0,29.93,ESE,114,0.0,0.0,80,0.00,,,0.03,281,Wunderground v.1.15,2013-09-12 19:12:00,
2013-09-12 15:18:00,83.9,77.4,29.92,ESE,117,0.0,0.0,81,0.00,,,0.03,301,Wunderground v.1.15,2013-09-12 19:18:00,
2013-09-12 15:24:00,83.9,77.4,29.92,East,87,0.0,0.0,81,0.00,,,0.03,288,Wunderground v.1.15,2013-09-12 19:24:00,
2013-09-12 15:30:00,84.0,77.5,29.92,SE,126,0.0,0.0,81,0.00,,,0.03,285,Wunderground v.1.15,2013-09-12 19:30:00,
2013-09-12 15:36:00,83.9,77.4,29.92,NE,49,0.0,0.0,81,0.00,,,0.03,285,Wunderground v.1.15,2013-09-12 19:36:00,
2013-09-12 15:42:00,84.0,77.5,29.92,East,99,0.0,5.0,81,0.00,,,0.03,302,Wunderground v.1.15,2013-09-12 19:42:00,
2013-09-12 15:48:00,83.9,77.4,29.92,East,96,0.0,5.0,81,0.00,,,0.03,373,Wunderground v.1.15,2013-09-12 19:48:00,
2013-09-12 15:54:00,83.9,77.4,29.92,ESE,102,0.0,1.0,81,0.00,,,0.03,269,Wunderground v.1.15,2013-09-12 19:54:00,
2013-09-12 16:00:00,84.0,77.9,29.91,ESE,106,0.0,0.0,82,0.00,,,0.03,306,Wunderground v.1.15,2013-09-12 20:00:00,
2013-09-12 16:06:00,84.2,77.7,29.91,ENE,78,0.0,6.0,81,0.00,,,0.03,262,Wunderground v.1.15,2013-09-12 20:06:00,
2013-09-12 16:12:00,84.2,77.7,29.91,ESE,113,0.0,0.0,81,0.00,,,0.03,229,Wunderground v.1.15,2013-09-12 20:12:00,
2013-09-12 16:18:00,84.2,77.7,29.90,East,84,0.0,7.0,81,0.00,,,0.03,230,Wunderground v.1.15,2013-09-12 20:18:00,
2013-09-12 16:24:00,84.0,77.5,29.90,ESE,122,0.0,1.0,81,0.00,,,0.03,223,Wunderground v.1.15,2013-09-12 20:24:00,
2013-09-12 16:30:00,84.1,77.6,29.90,ESE,115,0.0,0.0,81,0.00,,,0.03,211,Wunderground v.1.15,2013-09-12 20:30:00,
2013-09-12 16:36:00,84.0,77.9,29.90,ESE,120,0.0,0.0,82,0.00,,,0.03,188,Wunderground v.1.15,2013-09-12 20:36:00,
2013-09-12 16:42:00,84.0,77.5,29.90,ESE,114,0.0,0.0,81,0.00,,,0.03,183,Wunderground v.1.15,2013-09-12 20:42:00,
2013-09-12 16:48:00,83.9,77.8,29.89,ENE,76,0.0,0.0,82,0.00,,,0.03,192,Wunderground v.1.15,2013-09-12 20:48:00,
2013-09-12 16:54:00,83.9,77.8,29.89,ENE,76,0.0,1.0,82,0.00,,,0.03,204,Wunderground v.1.15,2013-09-12 20:54:00,
2013-09-12 17:00:00,84.0,77.9,29.89,ENE,78,0.0,0.0,82,0.00,,,0.03,211,Wunderground v.1.15,2013-09-12 21:00:00,
2013-09-12 17:06:00,84.0,77.5,29.89,ESE,109,0.0,0.0,81,0.00,,,0.03,193,Wunderground v.1.15,2013-09-12 21:06:00,
2013-09-12 17:12:00,84.0,77.9,29.89,East,88,0.0,0.0,82,0.00,,,0.03,174,Wunderground v.1.15,2013-09-12 21:12:00,
2013-09-12 17:18:00,84.0,77.9,29.89,East,94,0.0,0.0,82,0.00,,,0.03,160,Wunderground v.1.15,2013-09-12 21:18:00,
2013-09-12 17:24:00,83.9,77.8,29.89,East,90,1.0,7.0,82,0.00,,,0.03,160,Wunderground v.1.15,2013-09-12 21:24:00,
2013-09-12 17:30:00,83.7,78.0,29.89,ENE,66,1.0,1.0,83,0.00,,,0.03,171,Wunderground v.1.15,2013-09-12 21:30:00,
2013-09-12 17:36:00,83.6,77.9,29.89,East,80,1.0,2.0,83,0.00,,,0.03,165,Wunderground v.1.15,2013-09-12 21:36:00,
2013-09-12 17:42:00,83.7,78.0,29.89,East,101,0.0,1.0,83,0.00,,,0.03,149,Wunderground v.1.15,2013-09-12 21:42:00,
2013-09-12 17:52:00,83.6,77.9,29.89,ESE,105,0.0,5.0,83,0.00,,,0.03,100,Wunderground v.1.15,2013-09-12 21:52:00,
2013-09-12 17:58:00,83.6,77.9,29.90,ENE,78,0.0,5.0,83,0.00,,,0.03,62,Wunderground v.1.15,2013-09-12 21:58:00,
2013-09-12 18:04:00,83.6,77.9,29.90,ENE,59,0.0,0.0,83,0.00,,,0.03,53,Wunderground v.1.15,2013-09-12 22:04:00,
2013-09-12 18:10:00,83.4,77.3,29.90,NNE,26,0.0,0.0,82,0.00,,,0.03,47,Wunderground v.1.15,2013-09-12 22:10:00,
2013-09-12 18:16:00,83.3,76.9,29.90,ESE,103,0.0,0.0,81,0.00,,,0.03,51,Wunderground v.1.15,2013-09-12 22:16:00,
2013-09-12 18:22:00,83.2,76.4,29.90,NE,42,0.0,0.0,80,0.00,,,0.03,47,Wunderground v.1.15,2013-09-12 22:22:00,
2013-09-12 18:28:00,83.1,76.3,29.90,NE,43,0.0,0.0,80,0.00,,,0.03,47,Wunderground v.1.15,2013-09-12 22:28:00,
2013-09-12 18:34:00,83.2,76.8,29.90,ENE,76,0.0,0.0,81,0.00,,,0.03,47,Wunderground v.1.15,2013-09-12 22:34:00,
2013-09-12 18:40:00,83.2,77.1,29.90,ENE,75,0.0,0.0,82,0.00,,,0.03,39,Wunderground v.1.15,2013-09-12 22:40:00,
2013-09-12 18:46:00,83.1,77.4,29.89,ENE,57,0.0,0.0,83,0.00,,,0.03,33,Wunderground v.1.15,2013-09-12 22:46:00,
2013-09-12 18:52:00,83.1,77.4,29.90,ENE,58,0.0,0.0,83,0.00,,,0.03,26,Wunderground v.1.15,2013-09-12 22:52:00,
2013-09-12 18:58:00,83.0,77.3,29.89,ENE,58,0.0,7.0,83,0.00,,,0.03,12,Wunderground v.1.15,2013-09-12 22:58:00,
2013-09-12 19:04:00,83.0,77.3,29.90,ENE,58,0.0,0.0,83,0.00,,,0.03,9,Wunderground v.1.15,2013-09-12 23:04:00,
2013-09-12 19:10:00,82.9,77.2,29.90,ENE,58,0.0,0.0,83,0.00,,,0.03,7,Wunderground v.1.15,2013-09-12 23:10:00,
2013-09-12 19:16:00,82.8,76.7,29.90,ESE,121,0.0,0.0,82,0.00,,,0.03,7,Wunderground v.1.15,2013-09-12 23:16:00,
2013-09-12 19:22:00,82.8,76.4,29.90,SE,134,0.0,0.0,81,0.00,,,0.03,0,Wunderground v.1.15,2013-09-12 23:22:00,
2013-09-12 19:28:00,82.9,76.5,29.90,SSE,148,0.0,0.0,81,0.00,,,0.03,0,Wunderground v.1.15,2013-09-12 23:28:00,
2013-09-12 19:34:00,82.9,76.5,29.90,SSE,164,0.0,0.0,81,0.00,,,0.03,0,Wunderground v.1.15,2013-09-12 23:34:00,
2013-09-12 19:40:00,83.0,76.6,29.90,SSE,163,0.0,0.0,81,0.00,,,0.03,0,Wunderground v.1.15,2013-09-12 23:40:00,
2013-09-12 19:46:00,83.0,76.9,29.91,SSE,163,0.0,0.0,82,0.00,,,0.03,0,Wunderground v.1.15,2013-09-12 23:46:00,
2013-09-12 19:52:00,83.0,76.9,29.91,SSE,163,0.0,0.0,82,0.00,,,0.03,0,Wunderground v.1.15,2013-09-12 23:52:00,
2013-09-12 19:58:00,83.0,77.3,29.91,SSE,163,0.0,0.0,83,0.00,,,0.03,0,Wunderground v.1.15,2013-09-12 23:58:00,
2013-09-12 20:04:00,82.9,77.2,29.91,SSE,163,0.0,0.0,83,0.00,,,0.03,0,Wunderground v.1.15,2013-09-13 00:04:00,
2013-09-12 20:10:00,82.9,76.8,29.91,SSE,163,0.0,0.0,82,0.00,,,0.03,0,Wunderground v.1.15,2013-09-13 00:10:00,
2013-09-12 20:16:00,82.9,76.8,29.91,SSE,163,0.0,0.0,82,0.00,,,0.03,0,Wunderground v.1.15,2013-09-13 00:16:00,
2013-09-12 20:22:00,82.9,77.2,29.91,SSE,163,0.0,0.0,83,0.00,,,0.03,0,Wunderground v.1.15,2013-09-13 00:22:00,
2013-09-12 20:28:00,82.9,77.2,29.91,SSE,163,0.0,0.0,83,0.00,,,0.03,0,Wunderground v.1.15,2013-09-13 00:28:00,
2013-09-12 20:34:00,82.8,77.1,29.91,SSE,165,0.0,0.0,83,0.00,,,0.03,0,Wunderground v.1.15,2013-09-13 00:34:00,
2013-09-12 20:40:00,82.8,77.1,29.91,SSE,164,0.0,0.0,83,0.00,,,0.03,0,Wunderground v.1.15,2013-09-13 00:40:00,
2013-09-12 20:46:00,82.8,77.1,29.92,SSE,165,0.0,0.0,83,0.00,,,0.03,0,Wunderground v.1.15,2013-09-13 00:46:00,
2013-09-12 20:52:00,82.7,77.0,29.92,SE,133,0.0,0.0,83,0.00,,,0.03,0,Wunderground v.1.15,2013-09-13 00:52:00,
2013-09-12 20:58:00,82.4,76.7,29.91,SE,133,0.0,0.0,83,0.00,,,0.03,0,Wunderground v.1.15,2013-09-13 00:58:00,
2013-09-12 21:04:00,82.3,77.0,29.91,SE,134,0.0,0.0,84,0.00,,,0.03,0,Wunderground v.1.15,2013-09-13 01:04:00,
2013-09-12 21:10:00,82.1,76.4,29.92,North,360,0.0,0.0,83,0.00,,,0.03,0,Wunderground v.1.15,2013-09-13 01:10:00,
2013-09-12 21:16:00,81.7,76.0,29.92,North,355,0.0,0.0,83,0.00,,,0.03,0,Wunderground v.1.15,2013-09-13 01:16:00,
2013-09-12 21:22:00,81.2,76.3,29.92,North,355,0.0,0.0,85,0.00,,,0.03,0,Wunderground v.1.15,2013-09-13 01:22:00,
2013-09-12 21:28:00,80.8,75.9,29.92,North,355,0.0,0.0,85,0.00,,,0.03,0,Wunderground v.1.15,2013-09-13 01:28:00,
2013-09-12 21:34:00,80.6,75.7,29.92,North,355,0.0,0.0,85,0.00,,,0.03,0,Wunderground v.1.15,2013-09-13 01:34:00,
2013-09-12 21:40:00,80.5,75.6,29.92,North,355,0.0,0.0,85,0.00,,,0.03,0,Wunderground v.1.15,2013-09-13 01:40:00,
2013-09-12 21:46:00,80.5,75.6,29.92,North,355,0.0,0.0,85,0.00,,,0.03,0,Wunderground v.1.15,2013-09-13 01:46:00,
2013-09-12 21:52:00,80.5,75.6,29.92,North,355,0.0,0.0,85,0.00,,,0.03,0,Wunderground v.1.15,2013-09-13 01:52:00,
2013-09-12 21:58:00,80.5,75.6,29.92,North,355,0.0,0.0,85,0.00,,,0.03,0,Wunderground v.1.15,2013-09-13 01:58:00,
2013-09-12 22:04:00,80.5,75.6,29.92,North,355,0.0,0.0,85,0.00,,,0.03,0,Wunderground v.1.15,2013-09-13 02:04:00,
2013-09-12 22:10:00,80.5,75.6,29.92,North,355,0.0,0.0,85,0.00,,,0.03,0,Wunderground v.1.15,2013-09-13 02:10:00,
2013-09-12 22:16:00,80.5,75.9,29.92,North,355,0.0,0.0,86,0.00,,,0.03,0,Wunderground v.1.15,2013-09-13 02:16:00,
2013-09-12 22:22:00,80.4,75.8,29.92,North,355,0.0,0.0,86,0.00,,,0.03,0,Wunderground v.1.15,2013-09-13 02:22:00,
2013-09-12 22:28:00,80.3,75.7,29.92,North,355,0.0,0.0,86,0.00,,,0.03,0,Wunderground v.1.15,2013-09-13 02:28:00,
2013-09-12 22:34:00,80.3,76.1,29.92,North,355,0.0,0.0,87,0.00,,,0.03,0,Wunderground v.1.15,2013-09-13 02:34:00,
2013-09-12 22:40:00,80.3,76.1,29.92,North,355,0.0,0.0,87,0.00,,,0.03,0,Wunderground v.1.15,2013-09-13 02:40:00,
2013-09-12 22:46:00,80.2,76.0,29.91,North,355,0.0,0.0,87,0.00,,,0.03,0,Wunderground v.1.15,2013-09-13 02:46:00,
2013-09-12 22:52:00,80.3,76.4,29.92,North,355,0.0,0.0,88,0.00,,,0.03,0,Wunderground v.1.15,2013-09-13 02:52:00,
2013-09-12 22:58:00,80.2,76.3,29.91,North,355,0.0,0.0,88,0.00,,,0.03,0,Wunderground v.1.15,2013-09-13 02:58:00,
2013-09-12 23:04:00,80.1,76.2,29.91,North,355,0.0,0.0,88,0.00,,,0.03,0,Wunderground v.1.15,2013-09-13 03:04:00,
2013-09-12 23:10:00,80.0,76.1,29.91,North,355,0.0,0.0,88,0.00,,,0.03,0,Wunderground v.1.15,2013-09-13 03:10:00,
2013-09-12 23:16:00,79.9,76.0,29.90,North,355,0.0,0.0,88,0.00,,,0.03,0,Wunderground v.1.15,2013-09-13 03:16:00,
2013-09-12 23:22:00,79.9,76.0,29.90,North,355,0.0,0.0,88,0.00,,,0.03,0,Wunderground v.1.15,2013-09-13 03:22:00,
2013-09-12 23:28:00,79.8,76.3,29.90,North,355,0.0,0.0,89,0.00,,,0.03,0,Wunderground v.1.15,2013-09-13 03:28:00,
2013-09-12 23:34:00,79.8,76.3,29.90,North,355,0.0,0.0,89,0.00,,,0.03,0,Wunderground v.1.15,2013-09-13 03:34:00,
2013-09-12 23:40:00,79.7,76.2,29.90,North,355,0.0,0.0,89,0.00,,,0.03,0,Wunderground v.1.15,2013-09-13 03:40:00,
2013-09-12 23:46:00,79.7,76.2,29.90,North,355,0.0,0.0,89,0.00,,,0.03,0,Wunderground v.1.15,2013-09-13 03:46:00,
2013-09-12 23:52:00,79.9,76.4,29.90,ESE,106,0.0,0.0,89,0.00,,,0.03,0,Wunderground v.1.15,2013-09-13 03:52:00,
2013-09-12 23:58:00,80.2,76.7,29.90,ESE,106,0.0,0.0,89,0.00,,,0.03,0,Wunderground v.1.15,2013-09-13 03:58:00,